This demonstration page uses our WeatherBlox Daily Observations layout. Learn more.

Left ArrowRight Arrow

39.92423, -83.80882

Hourly Observations for February 8, 2016

Temp ( °F °C ) Dew Point ( °F °C ) Humidity (%) Winds ( mph kmh ) Pressure ( in mb ) Visibility ( mi km ) Precip ( " mm )
12:56 am 00:56 Mostly Cloudy 44 6.6 29 -1.6 56 56 SSW 14 22 29.74 1007 10 16 N/A
1:56 am 01:56 Cloudy 43 6.1 30 -1.1 60 60 SW 10 17 29.72 1007 10 16 N/A
2:56 am 02:56 Mostly Cloudy 41 5 33 0.5 73 73 WNW 8 13 29.70 1006 10 16 N/A
3:17 am 03:17 Cloudy with Light Rain 39 4 36 2 87 87 NW 8 13 29.71 1006 10 16 N/A
3:56 am 03:56 Cloudy with Light Rain 38 3.3 35 1.6 89 89 NW 7 11 29.69 1006 6 10 N/A
4:04 am 04:04 Cloudy with Light Rain 37 3 36 2 93 93 NW 6 9 29.71 1006 5 8 0.01 0.25
4:56 am 04:56 Cloudy with Light Rain 37 2.7 35 1.6 93 93 WNW 7 11 29.68 1005 7 11 0.04 1.02
5:18 am 05:18 Cloudy with Light Rain 36 2 36 2 100 100 NW 6 9 29.71 1006 7 11 0.02 0.51
5:56 am 05:56 Cloudy 35 1.6 34 1.1 97 97 NW 5 7 29.68 1005 9 14 0.03 0.76
6:06 am 06:06 Mostly Cloudy 36 2 34 1 93 93 WNW 5 7 29.68 1005 8 13 N/A
6:56 am 06:56 Cloudy with Light Wintry Mix 35 1.6 34 1.1 97 97 N N/A 29.67 1005 4 6 0.01 0.25
7:09 am 07:09 Cloudy 36 2 34 1 93 93 SSW 3 6 29.68 1005 7 11 N/A
7:56 am 07:56 Mostly Cloudy with Mist and Fog 33 0.5 32 undefined 96 96 SW 3 6 29.66 1005 3 5 N/A
8:04 am 08:04 Partly Cloudy with Mist and Fog 34 1 34 1 100 100 WSW 3 6 29.68 1005 3 4 N/A
8:24 am 08:24 Mostly Cloudy with Mist and Fog 34 1 34 1 100 100 N N/A 29.68 1005 1 2 N/A
8:34 am 08:34 Mostly Cloudy with Mist and Fog 34 1 34 1 100 100 SW 5 7 29.68 1005 1 1 N/A
8:45 am 08:45 Mostly Cloudy with Mist and Fog 36 2 36 2 100 100 SW 5 7 29.68 1005 1 2 N/A
8:47 am 08:47 Mostly Cloudy with Mist and Fog 36 2 36 2 100 100 SW 5 7 29.68 1005 3 4 N/A
8:56 am 08:56 Mostly Cloudy with Mist and Fog 35 1.6 35 1.6 100 100 SW 6 9 29.65 1004 6 10 N/A
9:27 am 09:27 Mostly Cloudy with Light Rain 36 2 36 2 100 100 WSW 5 7 29.68 1005 9 14 N/A
9:56 am 09:56 Mostly Sunny 37 2.7 37 2.7 100 100 W 8 13 29.64 1004 10 16 N/A
10:56 am 10:56 Mostly Cloudy 39 3.8 35 1.6 86 86 W 8 13 29.64 1004 10 16 N/A
11:28 am 11:28 Cloudy 37 3 34 1 87 87 W 7 11 29.65 1004 10 16 N/A
11:36 am 11:36 Cloudy 37 3 34 1 87 87 W 10 17 29.65 1004 10 16 N/A
11:44 am 11:44 Cloudy with Light Rain 37 3 34 1 87 87 W 7 11 29.65 1004 10 16 N/A
11:56 am 11:56 Cloudy with Light Rain 36 2.2 34 1.1 93 93 W 12 19 29.65 1004 5 8 N/A
12:06 pm 12:06 Cloudy with Light Rain 36 2 34 1 93 93 W 9 15 29.65 1004 4 6 N/A
12:18 pm 12:18 Cloudy with Light Rain 36 2 34 1 93 93 W 7 11 29.65 1004 2 3 0.01 0.25
12:27 pm 12:27 Cloudy with Light Rain 36 2 34 1 93 93 W 7 11 29.65 1004 2 3 0.02 0.51
12:43 pm 12:43 Cloudy with Light Wintry Mix 34 1 34 1 100 100 W 6 9 29.65 1004 1 2 0.03 0.76
12:56 pm 12:56 Cloudy with Light Wintry Mix 34 1.1 33 0.5 96 96 W 7 11 29.64 1004 1 2 0.04 1.02
1:00 pm 13:00 Cloudy with Light Wintry Mix 34 1 34 1 100 100 W 7 11 29.65 1004 1 1 N/A
1:12 pm 13:12 Cloudy with Light Snow 34 1 34 1 100 100 W 8 13 29.65 1004 1 1 0.01 0.25
1:24 pm 13:24 Cloudy with Light Snow 34 1 34 1 100 100 WNW 6 9 29.65 1004 1 2 0.02 0.51
1:29 pm 13:29 Cloudy with Light Snow 34 1 34 1 100 100 WNW 3 6 29.65 1004 2 2 0.02 0.51
1:33 pm 13:33 Cloudy with Light Snow 34 1 34 1 100 100 WNW 5 7 29.65 1004 3 5 0.02 0.51
1:41 pm 13:41 Cloudy with Light Snow 36 2 34 1 93 93 W 5 7 29.65 1004 10 16 0.02 0.51
1:56 pm 13:56 Cloudy 35 1.6 35 1.6 100 100 WSW 8 13 29.62 1003 10 16 0.02 0.51
2:34 pm 14:34 Mostly Cloudy 37 3 36 2 93 93 WNW 9 15 29.62 1003 10 16 N/A
2:42 pm 14:42 Mostly Cloudy 39 4 36 2 87 87 WNW 9 15 29.62 1003 10 16 N/A
2:56 pm 14:56 Mostly Cloudy 38 3.3 34 1.1 86 86 VRB 7 11 29.62 1003 10 16 N/A
3:56 pm 15:56 Mostly Cloudy 37 2.7 33 0.5 86 86 WNW 3 6 29.63 1003 10 16 N/A
4:56 pm 16:56 Cloudy 38 3.3 33 0.5 82 82 WNW 8 13 29.64 1004 10 16 N/A
5:05 pm 17:05 Mostly Cloudy with Light Rain 37 3 34 1 87 87 WSW 17 28 29.65 1004 3 4 N/A
5:07 pm 17:07 Cloudy with Light Freezing Rain 36 2 34 1 93 93 WSW 15 24 29.65 1004 1 2 N/A
5:09 pm 17:09 Cloudy with Light Freezing Rain 36 2 32 undefined 87 87 WSW 15 24 29.68 1005 1 1 N/A
5:14 pm 17:14 Cloudy with Snow 34 1 32 undefined 93 93 WSW 10 17 29.68 1005 1 1 N/A
5:28 pm 17:28 Cloudy with Light Snow 34 1 32 undefined 93 93 W 6 9 29.68 1005 1 2 0.01 0.25
5:39 pm 17:39 Cloudy with Light Snow 34 1 32 undefined 93 93 WNW 6 9 29.68 1005 1 1 0.01 0.25
5:44 pm 17:44 Cloudy with Light Snow 34 1 32 undefined 93 93 WNW 5 7 29.68 1005 1 1 0.02 0.51
5:47 pm 17:47 Cloudy with Light Snow 34 1 32 undefined 93 93 WNW 6 9 29.68 1005 1 2 0.02 0.51
5:49 pm 17:49 Cloudy with Light Snow 34 1 32 undefined 93 93 WNW 5 7 29.68 1005 2 3 0.02 0.51
5:56 pm 17:56 Cloudy with Light Snow 33 0.5 32 undefined 96 96 NW 6 9 29.66 1004 4 6 0.02 0.51
6:07 pm 18:07 Mostly Cloudy with Light Snow 34 1 32 undefined 93 93 N 6 9 29.68 1005 10 16 N/A
6:30 pm 18:30 Mostly Cloudy 34 1 32 undefined 93 93 WNW 3 6 29.68 1005 10 16 0.01 0.25
6:56 pm 18:56 Cloudy 33 0.5 33 0.5 100 100 W 5 7 29.67 1005 10 16 0.01 0.25
7:20 pm 19:20 Cloudy 32 undefined 32 undefined 100 100 WSW 5 7 29.68 1005 10 16 N/A
7:56 pm 19:56 Mostly Cloudy 32 undefined 32 undefined 100 100 WSW 5 7 29.68 1005 10 16 N/A
8:07 pm 20:07 Cloudy 32 undefined 32 undefined 100 100 W 6 9 29.68 1005 10 16 N/A
8:21 pm 20:21 Cloudy with Light Wintry Mix 34 1 32 undefined 93 93 W 8 13 29.68 1005 9 14 N/A
8:28 pm 20:28 Cloudy with Light Snow 34 1 32 undefined 93 93 W 14 22 29.68 1005 4 6 N/A
8:56 pm 20:56 Cloudy with Light Snow 31 -0.5 30 -1.1 96 96 WSW 13 20 29.69 1005 3 4 N/A
9:27 pm 21:27 Cloudy with Light Snow 30 -1 28 -2 93 93 WSW 16 26 29.71 1006 3 5 N/A
9:35 pm 21:35 Cloudy with Light Snow 30 -1 28 -2 93 93 W 15 24 29.74 1007 2 3 N/A
9:42 pm 21:42 Cloudy with Light Snow 30 -1 28 -2 93 93 WSW 15 24 29.74 1007 2 3 N/A
9:56 pm 21:56 Cloudy with Light Snow 29 -1.6 29 -1.6 100 100 WSW 13 20 29.70 1006 1 2 N/A
10:01 pm 22:01 Cloudy with Light Snow 28 -2 28 -2 100 100 W 14 22 29.74 1007 2 2 N/A
10:26 pm 22:26 Cloudy with Light Snow 28 -2 27 -3 93 93 WSW 15 24 29.74 1007 2 3 N/A
10:35 pm 22:35 Cloudy with Light Snow 28 -2 27 -3 93 93 WSW 14 22 29.74 1007 3 4 N/A
10:48 pm 22:48 Cloudy with Light Snow 27 -3 27 -3 100 100 WSW 12 19 29.74 1007 3 5 N/A
10:56 pm 22:56 Cloudy with Light Snow 27 -2.7 26 -3.3 96 96 WSW 16 26 29.70 1006 3 5 N/A
11:11 pm 23:11 Cloudy with Light Snow 27 -3 25 -4 93 93 W 12 19 29.74 1007 2 3 N/A
11:26 pm 23:26 Cloudy with Light Snow 27 -3 25 -4 93 93 W 13 20 29.74 1007 4 6 N/A
11:39 pm 23:39 Cloudy with Light Snow 27 -3 25 -4 93 93 WSW 14 22 29.74 1007 5 8 N/A
11:56 pm 23:56 Cloudy with Light Snow 26 -3.3 24 -4.4 92 92 WSW 12 19 29.70 1006 9 14 N/A

Powered by AerisWeather